Flag for Germany Weather past 2 weeks in Varel, Lower Saxony, Germany

Now
68 °F

Passing clouds.


Feels Like: 68 °F
Forecast: 58 / 70 °F
Wind: 5 mph from East

Location: Wittmundhaven

Current Time: Sep 19, 2014 at 12:42:24 PM

Latest Report: Sep 19, 2014 at 11:20 AM


Visibility: 6 mi

Pressure: 29.89 "Hg

Humidity: 78%

Dew point: 61 °F

Location of VarelLocation

Historic Weather in Varel — Graph

°F

Varel temperature yesterday

Maximum temperature yesterday: 75 °F (at 3:20 PM)
Minimum temperature yesterday: 57 °F (at 5:20 AM)
Average temperature yesterday: 65 °F

Past Weeks' High & Low Weather Summary

 TemperatureHumidityPressure
High75 °F (Sep 5, 4:20 PM)100% (Sep 5, 11:20 PM)30.30 "Hg (Sep 5, 11:20 PM)
Low48 °F (Sep 12, 4:20 AM)57% (Sep 4, 3:20 PM)29.86 "Hg (Sep 6, 5:20 PM)
Average62 °F84%30.05 "Hg
* Reported Sep 4 11:20 AM — Sep 19 11:20 AM, Varel, Weather by CustomWeather, © 2014

Note: Actual official high and low records may vary slightly from our data, if they occured in-between our weather recording intervals... More about our weather records

Advertising

Varel weather history for previous 24 hours

 ConditionsComfort  
Time TempWeatherWind HumidityBarometerVisibility
11:20 AM
Sep 19
68 °FPassing clouds.5 mph78%29.89 "Hg6 mi
10:20 AM64 °FPassing clouds.3 mph83%29.92 "Hg5 mi
9:57 AM63 °FPassing clouds.5 mph88%29.89 "Hg4 mi
8:20 AM55 °FFog.5 mph100%29.89 "Hg1 mi
7:20 AM55 °FLight fog.3 mph100%29.89 "Hg1 mi
6:20 AM55 °FFog.5 mph100%29.86 "Hg2 mi
5:20 AM55 °FFog.3 mph94%29.86 "Hg4 mi
4:20 AM57 °FCool.6 mph94%29.89 "Hg4 mi
3:20 AM59 °FCool.6 mph88%29.89 "HgN/A
2:20 AM59 °FPassing clouds.5 mph88%29.89 "HgN/A
1:20 AM61 °FCool.6 mph83%29.89 "HgN/A
12:20 AM63 °FMild.7 mph83%29.89 "HgN/A
11:20 PM
Sep 18
63 °FPassing clouds.7 mph83%29.89 "HgN/A
10:20 PM63 °FPassing clouds.8 mph83%29.89 "HgN/A
9:45 PM64 °FMild.8 mph78%29.89 "HgN/A
9:20 PM64 °FMild.8 mph78%29.89 "HgN/A
8:20 PM66 °FPassing clouds.9 mph78%29.89 "HgN/A
7:20 PM70 °FPassing clouds.6 mph69%29.89 "HgN/A
6:20 PM73 °FPassing clouds.8 mph61%29.89 "HgN/A
5:20 PM75 °FPassing clouds.10 mph57%29.89 "HgN/A
4:20 PM75 °FPassing clouds.10 mph57%29.86 "HgN/A
3:20 PM75 °FPassing clouds.10 mph57%29.86 "HgN/A
2:20 PM73 °FPassing clouds.10 mph61%29.89 "HgN/A
1:20 PM72 °FPassing clouds.12 mph65%29.89 "HgN/A
12:20 PM70 °FPassing clouds.12 mph69%29.89 "HgN/A
Weather by CustomWeather, © 2014

See weather overviewHow to use our weather pages